www.pogodaiklimat.ru

Погода и климат >> Архив погоды >> Индия >> Махараштра >> Чандрапур


ПОГОДА в Чандрапуре

  • Прогноз погоды в Чандрапуре
  • Монитор погоды в Чандрапуре

АРХИВ ПОГОДЫ в Чандрапуре

Время (UTC), дата Ветер
(напр.,м/с)
 
Видим.   Явления Облачность Т
(С)
Тd
(С)
f
(%)
Тe
(С)
Тes
(С)
Комфортность P
(гПа)
Po
(гПа)
Тmin
(С)
Tmax
(С)
R
(мм)
R24
(мм)
S
(см)
06 17.05 ЮЗ 1 4000 м ясно +41.6 +13.4 19 +42 +67 опасность
перегрева
1008.8 987.9
09 17.05 ЮЗ 1 4000 м ясно +44.8 +14.5 17 +45 +64 опасность
перегрева
1003.9 983.3
12 17.05 Ю 2 4000 м ясно +44.2 +11.2 14 +43 +45 опасность
перегрева
1003.5 982.9 +45.8
03 18.05 ЮЗ 2 4000 м ясно +38.2 +16.0 27 +40 +49 очень
душно
1008.4 987.3 +30.2
06 18.05 Ю 2 4000 м ясно +41.8 +13.8 19 +42 +65 опасность
перегрева
1008.6 987.7
09 18.05 ЮЗ 2 4000 м ясно +44.4 +14.5 18 +45 +62 опасность
перегрева
1003.6 983.0
12 18.05 СВ 2 4000 м ясно +44.4 +11.6 15 +44 +46 опасность
перегрева
1003.3 982.7 +45.8
03 19.05 С 2 4000 м ясно +37.4 +16.6 29 +40 +49 очень
душно
1006.6 985.4 +30.0
06 19.05 С 1 4000 м ясно +41.6 +14.0 20 +42 +67 опасность
перегрева
1007.7 986.8
09 19.05 З 1 4000 м ясно +45.0 +13.8 16 +45 +64 опасность
перегрева
1002.6 982.0
12 19.05 ЮЗ 2 4000 м ясно +44.2 +12.9 16 +44 +46 опасность
перегрева
1003.5 982.9 +45.6
03 20.05 З 2 4000 м ясно +37.4 +14.3 25 +38 +47 душно 1007.7 986.5 +29.8
06 20.05 Ю 1 4000 м ясно +41.8 +13.3 19 +42 +67 опасность
перегрева
1008.0 987.1
09 20.05 СЗ 1 4000 м ясно +45.2 +14.2 17 +46 +64 опасность
перегрева
1003.2 982.6
12 20.05 В 2 4000 м ясно +43.2 +14.7 19 +44 +46 опасность
перегрева
1002.7 982.0 +45.8
03 21.05 ЮВ 2 4000 м ясно +37.6 +20.8 38 +44 +53 опасность
перегрева
1007.8 986.6 +31.8
06 21.05 Ю 1 4000 м ясно +42.0 +18.7 26 +46 +71 опасность
перегрева
1008.2 987.3
09 21.05 Ю 2 4000 м ясно +43.6 +15.4 20 +45 +62 опасность
перегрева
1002.5 981.8
12 21.05 ЮЗ 1 4000 м ясно +42.8 +14.5 19 +43 +45 опасность
перегрева
1002.2 981.5 +46.6
03 22.05 С 2 4000 м ясно +36.6 +17.5 33 +40 +49 очень
душно
1006.9 985.7 +33.0
06 22.05 Ю 1 4000 м ясно +41.8 +15.3 21 +43 +68 опасность
перегрева
1007.8 986.9
09 22.05 ЮВ 2 4000 м ясно +45.6 +12.8 15 +45 +63 опасность
перегрева
1002.2 981.7
12 22.05 ЮЗ 2 4000 м ясно +44.2 +15.0 18 +45 +47 опасность
перегрева
1001.2 980.6 +46.4
03 23.05 С 2 4000 м ясно +36.8 +17.0 31 +39 +49 очень
душно
1007.1 985.9 +32.6
06 23.05 ЮЗ 2 4000 м ясно +42.0 +14.6 20 +43 +66 опасность
перегрева
1008.0 987.1
09 23.05 Ю 2 4000 м ясно +45.8 +13.2 15 +46 +63 опасность
перегрева
1002.4 981.9
12 23.05 ЮЗ 1 4000 м ясно +42.2 +16.4 22 +44 +46 опасность
перегрева
1001.5 980.8 +46.2
03 24.05 З 1 4000 м ясно +36.6 +17.5 33 +40 +50 очень
душно
1006.8 985.6 +33.2

 

Местоположение метеостанции Чандрапур (Махараштра, Индия): широта 19.97 долгота 79.30 высота над уровнем моря 193 м.

В архиве по умолчанию представлена погода в Чандрапуре за последнюю неделю. Архивные данные за месяц целиком и за предыдущие месяцы, начиная с января 2011 года, Вы можете получить, выбрав интересующий диапазон дат из раскрывающегося списка и нажав кнопку "Ввод!".


*Определитесь, кто Вы:
робот инопланетянин человек

Внимание! Время в таблицах - всемирное. Для получения местного времени необходимо прибавить поправку, которая равна 5.5 ч.

Смотрите также архив погоды в соседних городах и на ближайших метеорологических станциях:

Погода в Адилабаде (Телингана, Индия) (88 км)
Погода в Брамапури (Махараштра, Индия) (91 км)
Погода в Вардхе (Махараштра, Индия) (108 км)
Погода в Нагпуре (Махараштра, Индия) (128 км)
Погода в Яватмале (Махараштра, Индия) (129 км)
Погода в Рамагундэме (Телингана, Индия) (134 км)
Погода в Амравати (Махараштра, Индия) (191 км)
Погода в Гондии (Махараштра, Индия) (191 км)
Погода в Низамабаде (Телингана, Индия) (192 км)
Погода в Ханамконде (Телингана, Индия) (219 км)

Пояснения к столбцам:

Ветер - указаны скорость ветра в м/с - средняя за 10 мин, порывы в срок и между сроками (в фигурных скобках) и направление, откуда дует ветер: С - северный, СВ - северо-восточный, В - восточный, ЮВ - юго-восточный, Ю - южный, ЮЗ - юго-западный, З - западный, СЗ - северо-западный.
Видимость - горизонтальная дальность видимости в метрах или километрах. При видимости от 1 до 10 км при отсутствии осадков обычно наблюдается дымка, при ухудшении видимости до 1 км и менее - туман. В сухую погоду видимость может ухудшаться дымом, пылью или мглою.
Явления - указаны атмосферные явления, наблюдавшиеся в срок или в последний час перед сроком; фигурными скобками обозначены явления, наблюдавшиеся между сроками (за 1-3 часа до срока); квадратными скобками обозначены град или гололедные отложения с указанием их диаметра в мм.
Облачность - указаны через наклонную черту общая и нижняя облачность в баллах и высота нижней границы облаков в метрах; квадратными скобками обозначены формы облаков: Ci - перистые, Cs - перисто-слоистые, Cc - перисто-кучевые, Ac - высококучевые, As - высокослоистые, Sc - слоисто-кучевые, Ns - слоисто-дождевые, Cu - кучевые, Cb - кучево-дождевые. Подробнее классификацию облаков см. в Атласе облаков (PDF).
T - Температура воздуха - температура, измеренная на высоте 2 м над землей.
Td - Температура точки росы - температура, при понижении до которой содержащийся в воздухе водяной пар достигнет насыщения.
f - Относительная влажность воздуха - влажноcть воздуха, измеренная на высоте 2 м над землей.
Te - Эффективная температура - температура, которую ощущает одетый по сезону человек в тени. Характеристика душности погоды. При расчете учитывается влияние влажности воздуха и скорости ветра на теплоощущения человека.
Tes - Эффективная температура на солнце - температура, которую ощущает человек, с поправкой на солнечный нагрев. Характеристика знойности погоды. Зависит от высоты солнца над горизонтом, облачности и скорости ветра. Ночью, в пасмурную погоду, а также при ветре 12 м/с и более поправка равна нулю.
P - Атмосферное давление - приведенное к уровню моря атмосферное давление.
Po - Атмосферное давление - измеренное на уровне метеостанции атмосферное давление.
Tmin - Минимальная температура - минимум температуры воздуха на высоте 2 м над землей.
Tmax - Максимальная температура - максимум температуры воздуха на высоте 2 м над землей.
R - Количество осадков - Количество выпавших осадков за период времени, мм. При наведении курсора мыши на число - период времени, за который выпало указанное количество осадков.
R24 - Количество осадков - Количество выпавших осадков за 24 часа, мм.
S - Снежный покров - Высота снежного покрова, см. При наведении курсора мыши на число - состояние снежного покрова и степень покрытия местности в баллах.